QPF
0.01 0.01 0.02 0.04 0.02 0.00 0.01 0.02 0.03 0.05 0.03 0.03 0.03 0.02 0.02 0.01 0.01 0.01 0.01 0.01 0.01 0.01 0.01 0.03 0.03 0.04 0.04 0.05 0.05 0.05 0.04 0.03 0.03 0.03 0.03 0.04 0.06 0.06 0.06 0.07 0.08 0.06 0.05 0.05 0.06 0.08 0.13 0.11 0.08
0.01 0.01 0.02 0.02 0.00 0.00 0.01 0.01 0.02 0.05 0.04 0.02 0.01 0.01 0.00 0.00 0.01 0.01 0.01 0.01 0.01 0.01 0.01 0.01 0.02 0.02 0.04 0.05 0.06 0.06 0.04 0.03 0.03 0.03 0.04 0.05 0.11 0.08 0.06 0.06 0.09 0.10 0.08 0.06 0.06 0.07 0.10 0.10 0.09
0.01 0.02 0.02 0.00 0.00 0.01 0.01 0.02 0.02 0.01 0.02 0.02 0.01 0.00 0.00 0.00 0.01 0.01 0.01 0.01 0.00 0.00 0.00 0.01 0.03 0.02 0.03 0.04 0.05 0.05 0.05 0.04 0.04 0.04 0.05 0.07 0.16 0.16 0.12 0.09 0.11 0.13 0.10 0.08 0.07 0.06 0.08 0.09 0.09
0.01 0.02 0.01 0.00 0.00 0.00 0.01 0.01 0.00 0.00 0.01 0.01 0.01 0.00 0.01 0.01 0.01 0.01 0.01 0.01 0.01 0.00 0.00 0.01 0.03 0.02 0.04 0.05 0.04 0.04 0.04 0.05 0.04 0.04 0.05 0.07 0.15 0.17 0.17 0.14 0.13 0.11 0.07 0.08 0.07 0.07 0.08 0.09 0.09
0.01 0.00 0.00 0.01 0.01 0.00 0.00 0.00 0.00 0.00 0.01 0.01 0.00 0.00 0.02 0.01 0.01 0.01 0.01 0.00 0.00 0.00 0.00 0.01 0.03 0.03 0.04 0.05 0.04 0.04 0.05 0.05 0.03 0.04 0.04 0.06 0.08 0.11 0.13 0.12 0.09 0.06 0.05 0.06 0.07 0.08 0.08 0.07 0.07
0.00 0.00 0.00 0.00 0.01 0.00 0.00 0.00 0.00 0.00 0.00 0.00 0.00 0.00 0.01 0.01 0.02 0.03 0.02 0.01 0.00 0.01 0.01 0.01 0.04 0.04 0.03 0.04 0.04 0.04 0.06 0.05 0.04 0.05 0.05 0.05 0.06 0.07 0.09 0.10 0.09 0.07 0.06 0.07 0.08 0.08 0.07 0.07 0.08
0.00 0.00 0.00 0.00 0.01 0.01 0.00 0.00 0.00 0.00 0.01 0.00 0.00 0.00 0.01 0.02 0.02 0.04 0.04 0.02 0.01 0.01 0.00 0.00 0.01 0.03 0.02 0.03 0.03 0.04 0.05 0.07 0.06 0.04 0.05 0.04 0.05 0.06 0.07 0.07 0.07 0.07 0.05 0.05 0.06 0.05 0.06 0.07 0.07
0.00 0.00 0.00 0.01 0.01 0.01 0.01 0.00 0.00 0.01 0.02 0.01 0.00 0.00 0.00 0.02 0.03 0.03 0.04 0.03 0.02 0.01 0.00 0.00 0.00 0.01 0.01 0.01 0.04 0.05 0.04 0.05 0.05 0.05 0.04 0.03 0.04 0.05 0.05 0.03 0.04 0.04 0.05 0.05 0.06 0.05 0.05 0.05 0.04
0.00 0.00 0.01 0.01 0.01 0.01 0.01 0.00 0.00 0.00 0.00 0.00 0.00 0.00 0.00 0.01 0.03 0.04 0.03 0.02 0.02 0.01 0.00 0.00 0.00 0.00 0.00 0.01 0.02 0.04 0.05 0.05 0.04 0.03 0.04 0.04 0.02 0.02 0.02 0.03 0.04 0.04 0.04 0.06 0.06 0.05 0.06 0.04 0.03
0.00 0.01 0.02 0.01 0.00 0.00 0.00 0.00 0.00 0.00 0.00 0.00 0.00 0.00 0.00 0.00 0.02 0.05 0.04 0.03 0.01 0.01 0.00 0.00 0.00 0.01 0.00 0.01 0.01 0.01 0.02 0.02 0.02 0.01 0.01 0.01 0.01 0.00 0.01 0.03 0.05 0.05 0.05 0.07 0.07 0.06 0.04 0.03 0.02
0.01 0.01 0.01 0.01 0.00 0.00 0.00 0.00 0.00 0.00 0.00 0.00 0.00 0.00 0.00 0.00 0.01 0.02 0.04 0.03 0.01 0.01 0.01 0.01 0.01 0.01 0.01 0.01 0.01 0.01 0.01 0.01 0.01 0.01 0.01 0.00 0.00 0.01 0.01 0.02 0.03 0.03 0.06 0.07 0.06 0.05 0.04 0.03 0.02
0.01 0.00 0.00 0.00 0.00 0.00 0.00 0.00 0.00 0.00 0.00 0.00 0.00 0.00 0.00 0.00 0.01 0.01 0.01 0.01 0.01 0.01 0.01 0.01 0.02 0.01 0.01 0.01 0.01 0.01 0.01 0.01 0.00 0.01 0.01 0.00 0.00 0.00 0.02 0.03 0.04 0.05 0.06 0.08 0.06 0.04 0.04 0.04 0.03
0.00 0.00 0.00 0.00 0.00 0.00 0.00 0.00 0.00 0.00 0.00 0.00 0.00 0.00 0.00 0.00 0.00 0.00 0.00 0.01 0.01 0.01 0.01 0.01 0.01 0.02 0.03 0.02 0.02 0.02 0.02 0.01 0.01 0.01 0.01 0.00 0.00 0.00 0.02 0.03 0.05 0.07 0.07 0.08 0.06 0.04 0.04 0.04 0.03
0.00 0.00 0.00 0.00 0.00 0.00 0.00 0.00 0.00 0.00 0.00 0.00 0.00 0.00 0.00 0.00 0.00 0.00 0.00 0.00 0.01 0.00 0.01 0.02 0.02 0.02 0.03 0.03 0.01 0.01 0.01 0.02 0.01 0.01 0.00 0.00 0.01 0.01 0.01 0.02 0.05 0.10 0.09 0.09 0.07 0.05 0.04 0.03 0.03
0.01 0.00 0.00 0.00 0.00 0.00 0.00 0.00 0.00 0.00 0.00 0.00 0.00 0.00 0.00 0.00 0.00 0.00 0.00 0.00 0.00 0.00 0.01 0.01 0.03 0.02 0.02 0.03 0.02 0.02 0.02 0.02 0.02 0.01 0.01 0.01 0.01 0.02 0.02 0.02 0.03 0.08 0.09 0.10 0.09 0.06 0.04 0.03 0.02
0.01 0.00 0.00 0.00 0.00 0.00 0.00 0.00 0.00 0.00 0.00 0.00 0.00 0.00 0.00 0.01 0.00 0.00 0.00 0.00 0.00 0.00 0.01 0.01 0.02 0.02 0.02 0.02 0.01 0.02 0.03 0.03 0.02 0.01 0.01 0.01 0.01 0.01 0.01 0.02 0.02 0.04 0.04 0.06 0.06 0.06 0.04 0.04 0.03
0.00 0.00 0.00 0.00 0.00 0.00 0.00 0.00 0.00 0.00 0.00 0.00 0.00 0.00 0.00 0.00 0.00 0.00 0.00 0.00 0.00 0.01 0.01 0.01 0.02 0.02 0.02 0.02 0.01 0.02 0.03 0.03 0.03 0.02 0.01 0.01 0.01 0.01 0.01 0.02 0.02 0.03 0.04 0.04 0.04 0.04 0.05 0.04 0.04
0.00 0.00 0.00 0.00 0.00 0.00 0.00 0.00 0.00 0.00 0.00 0.00 0.00 0.00 0.00 0.00 0.00 0.00 0.00 0.00 0.00 0.01 0.00 0.01 0.01 0.01 0.01 0.02 0.01 0.01 0.02 0.02 0.02 0.02 0.01 0.01 0.01 0.00 0.01 0.01 0.02 0.03 0.05 0.05 0.03 0.03 0.04 0.04 0.03
0.00 0.00 0.00 0.00 0.00 0.00 0.00 0.00 0.00 0.00 0.00 0.00 0.00 0.00 0.00 0.00 0.00 0.00 0.01 0.01 0.01 0.01 0.01 0.01 0.01 0.00 0.01 0.02 0.01 0.00 0.01 0.01 0.01 0.01 0.01 0.00 0.00 0.00 0.00 0.00 0.01 0.01 0.03 0.04 0.04 0.02 0.02 0.02 0.02
0.00 0.00 0.00 0.00 0.00 0.00 0.00 0.00 0.00 0.00 0.00 0.00 0.00 0.00 0.00 0.00 0.00 0.00 0.00 0.00 0.01 0.01 0.01 0.01 0.01 0.01 0.01 0.02 0.01 0.00 0.00 0.01 0.01 0.01 0.01 0.01 0.00 0.00 0.00 0.00 0.00 0.01 0.01 0.03 0.03 0.03 0.02 0.02 0.02
0.00 0.00 0.00 0.00 0.00 0.01 0.00 0.00 0.00 0.00 0.00 0.00 0.00 0.00 0.00 0.00 0.00 0.00 0.00 0.00 0.01 0.02 0.02 0.01 0.01 0.01 0.02 0.02 0.01 0.00 0.00 0.01 0.01 0.01 0.02 0.01 0.01 0.01 0.00 0.00 0.00 0.00 0.00 0.01 0.02 0.03 0.03 0.03 0.03
0.00 0.00 0.00 0.00 0.00 0.00 0.00 0.00 0.00 0.00 0.00 0.00 0.00 0.00 0.00 0.00 0.00 0.00 0.00 0.00 0.01 0.02 0.02 0.02 0.01 0.01 0.02 0.02 0.01 0.01 0.01 0.01 0.01 0.01 0.01 0.01 0.01 0.01 0.00 0.00 0.00 0.00 0.00 0.00 0.01 0.02 0.03 0.04 0.03
0.00 0.00 0.00 0.00 0.00 0.00 0.00 0.00 0.00 0.00 0.00 0.00 0.00 0.00 0.00 0.00 0.00 0.00 0.01 0.01 0.01 0.02 0.02 0.02 0.02 0.02 0.02 0.02 0.02 0.02 0.02 0.02 0.02 0.02 0.01 0.01 0.01 0.01 0.01 0.00 0.00 0.00 0.00 0.00 0.01 0.01 0.01 0.02 0.02
0.00 0.01 0.00 0.00 0.00 0.00 0.00 0.00 0.00 0.00 0.00 0.00 0.00 0.00 0.00 0.00 0.00 0.00 0.01 0.01 0.01 0.01 0.02 0.01 0.02 0.02 0.02 0.03 0.02 0.02 0.03 0.03 0.02 0.02 0.01 0.01 0.01 0.01 0.01 0.01 0.01 0.00 0.00 0.00 0.00 0.00 0.00 0.02 0.03
0.01 0.00 0.00 0.00 0.00 0.00 0.00 0.00 0.00 0.00 0.00 0.00 0.01 0.00 0.00 0.00 0.00 0.00 0.01 0.01 0.01 0.01 0.02 0.02 0.01 0.02 0.03 0.03 0.02 0.02 0.04 0.04 0.02 0.02 0.01 0.01 0.02 0.02 0.01 0.01 0.01 0.00 0.00 0.00 0.00 0.01 0.01 0.01 0.01
0.00 0.00 0.00 0.00 0.00 0.00 0.00 0.01 0.00 0.00 0.00 0.00 0.00 0.00 0.00 0.00 0.00 0.00 0.00 0.00 0.00 0.01 0.01 0.02 0.02 0.02 0.04 0.04 0.03 0.03 0.04 0.05 0.03 0.02 0.01 0.01 0.02 0.03 0.03 0.02 0.01 0.00 0.00 0.00 0.00 0.00 0.00 0.01 0.01
0.00 0.00 0.00 0.00 0.00 0.00 0.00 0.00 0.00 0.00 0.00 0.00 0.00 0.00 0.00 0.00 0.00 0.00 0.00 0.00 0.01 0.01 0.01 0.01 0.02 0.03 0.03 0.04 0.04 0.04 0.04 0.05 0.04 0.02 0.01 0.01 0.01 0.02 0.02 0.03 0.02 0.01 0.01 0.01 0.00 0.00 0.00 0.01 0.01
0.00 0.00 0.00 0.00 0.00 0.00 0.00 0.00 0.00 0.00 0.00 0.00 0.00 0.00 0.01 0.00 0.00 0.00 0.00 0.01 0.01 0.01 0.00 0.01 0.02 0.03 0.03 0.05 0.05 0.04 0.04 0.04 0.02 0.02 0.01 0.01 0.01 0.01 0.02 0.03 0.03 0.02 0.01 0.01 0.01 0.01 0.01 0.01 0.02
0.00 0.00 0.00 0.00 0.00 0.00 0.00 0.00 0.00 0.00 0.00 0.00 0.00 0.00 0.00 0.01 0.01 0.01 0.01 0.01 0.01 0.01 0.01 0.02 0.03 0.03 0.04 0.05 0.04 0.02 0.02 0.02 0.02 0.02 0.01 0.01 0.01 0.01 0.02 0.02 0.03 0.02 0.01 0.01 0.01 0.01 0.01 0.01 0.01
0.00 0.00 0.00 0.00 0.00 0.00 0.00 0.00 0.00 0.00 0.00 0.00 0.00 0.00 0.00 0.01 0.01 0.01 0.01 0.01 0.02 0.02 0.03 0.04 0.04 0.04 0.04 0.03 0.02 0.01 0.01 0.01 0.01 0.01 0.02 0.02 0.02 0.02 0.03 0.03 0.03 0.03 0.01 0.01 0.01 0.01 0.01 0.02 0.02
MSLP
1009.87 1011.13 1012.78 1014.66 1016.56 1018.29 1019.65 1020.57 1021.01 1021.04 1020.80 1020.42 1020.05 1019.74 1019.52 1019.35 1019.15 1018.84 1018.37 1017.73 1016.97 1016.16 1015.40 1014.77 1014.34 1014.09 1013.98 1013.96 1013.95 1013.89 1013.77 1013.58 1013.38 1013.20 1013.09 1013.08 1013.15 1013.28 1013.42 1013.52 1013.55 1013.51 1013.40 1013.27 1013.15 1013.07 1013.04 1013.07 1013.12
1010.78 1012.29 1014.11 1016.05 1017.91 1019.46 1020.58 1021.18 1021.30 1021.02 1020.51 1019.94 1019.42 1019.04 1018.80 1018.65 1018.51 1018.29 1017.93 1017.41 1016.78 1016.09 1015.45 1014.92 1014.55 1014.35 1014.27 1014.26 1014.25 1014.20 1014.08 1013.92 1013.74 1013.59 1013.51 1013.50 1013.57 1013.68 1013.78 1013.84 1013.84 1013.76 1013.63 1013.49 1013.36 1013.28 1013.25 1013.28 1013.33
1011.88 1013.56 1015.46 1017.36 1019.05 1020.37 1021.20 1021.49 1021.31 1020.78 1020.07 1019.36 1018.77 1018.35 1018.12 1018.00 1017.91 1017.76 1017.48 1017.07 1016.55 1015.98 1015.45 1015.02 1014.73 1014.58 1014.54 1014.54 1014.53 1014.48 1014.37 1014.22 1014.06 1013.93 1013.86 1013.86 1013.91 1013.98 1014.05 1014.07 1014.04 1013.95 1013.82 1013.69 1013.59 1013.53 1013.53 1013.57 1013.64
1013.07 1014.84 1016.70 1018.46 1019.93 1020.96 1021.49 1021.50 1021.09 1020.39 1019.59 1018.83 1018.23 1017.83 1017.62 1017.53 1017.47 1017.36 1017.14 1016.80 1016.36 1015.90 1015.47 1015.14 1014.93 1014.83 1014.80 1014.81 1014.80 1014.75 1014.64 1014.50 1014.34 1014.22 1014.15 1014.13 1014.16 1014.21 1014.24 1014.24 1014.19 1014.11 1014.02 1013.94 1013.89 1013.88 1013.92 1013.99 1014.07
1014.25 1016.01 1017.75 1019.29 1020.48 1021.21 1021.46 1021.25 1020.70 1019.95 1019.15 1018.44 1017.91 1017.58 1017.41 1017.35 1017.31 1017.20 1017.00 1016.69 1016.32 1015.93 1015.58 1015.33 1015.17 1015.11 1015.10 1015.10 1015.08 1015.01 1014.89 1014.74 1014.59 1014.47 1014.39 1014.36 1014.37 1014.38 1014.39 1014.38 1014.35 1014.31 1014.27 1014.25 1014.28 1014.33 1014.42 1014.52 1014.61
1015.34 1017.00 1018.53 1019.80 1020.69 1021.15 1021.17 1020.83 1020.23 1019.52 1018.83 1018.26 1017.87 1017.64 1017.54 1017.50 1017.44 1017.32 1017.10 1016.80 1016.45 1016.11 1015.82 1015.62 1015.51 1015.46 1015.45 1015.43 1015.37 1015.27 1015.13 1014.97 1014.82 1014.70 1014.62 1014.58 1014.57 1014.57 1014.57 1014.57 1014.56 1014.57 1014.60 1014.66 1014.76 1014.88 1015.01 1015.14 1015.24
1016.27 1017.74 1019.02 1020.00 1020.60 1020.82 1020.69 1020.30 1019.76 1019.18 1018.68 1018.31 1018.08 1017.98 1017.95 1017.93 1017.85 1017.68 1017.42 1017.10 1016.76 1016.45 1016.20 1016.02 1015.93 1015.88 1015.84 1015.78 1015.69 1015.56 1015.39 1015.22 1015.07 1014.96 1014.88 1014.84 1014.83 1014.83 1014.83 1014.84 1014.87 1014.93 1015.02 1015.15 1015.32 1015.49 1015.65 1015.79 1015.88
1017.00 1018.26 1019.27 1019.96 1020.32 1020.35 1020.13 1019.76 1019.33 1018.95 1018.68 1018.52 1018.48 1018.51 1018.54 1018.52 1018.40 1018.18 1017.88 1017.53 1017.19 1016.89 1016.66 1016.50 1016.41 1016.34 1016.26 1016.17 1016.03 1015.86 1015.68 1015.51 1015.38 1015.28 1015.22 1015.20 1015.20 1015.20 1015.21 1015.24 1015.30 1015.39 1015.53 1015.72 1015.92 1016.13 1016.31 1016.44 1016.51
1017.56 1018.59 1019.35 1019.79 1019.94 1019.85 1019.60 1019.30 1019.03 1018.85 1018.80 1018.86 1018.98 1019.11 1019.17 1019.14 1018.98 1018.72 1018.37 1018.01 1017.66 1017.37 1017.16 1017.01 1016.91 1016.82 1016.71 1016.56 1016.39 1016.20 1016.01 1015.86 1015.75 1015.69 1015.67 1015.68 1015.69 1015.71 1015.73 1015.77 1015.85 1015.96 1016.13 1016.34 1016.56 1016.77 1016.94 1017.05 1017.11
1017.99 1018.81 1019.34 1019.58 1019.59 1019.43 1019.20 1018.99 1018.88 1018.89 1019.03 1019.25 1019.49 1019.67 1019.74 1019.68 1019.48 1019.17 1018.80 1018.43 1018.10 1017.84 1017.65 1017.51 1017.41 1017.29 1017.15 1016.97 1016.77 1016.57 1016.39 1016.27 1016.20 1016.20 1016.22 1016.27 1016.31 1016.35 1016.38 1016.43 1016.51 1016.63 1016.80 1017.01 1017.22 1017.42 1017.57 1017.65 1017.67
1018.35 1019.00 1019.36 1019.45 1019.37 1019.18 1019.00 1018.89 1018.91 1019.08 1019.34 1019.66 1019.94 1020.13 1020.18 1020.08 1019.83 1019.49 1019.12 1018.76 1018.46 1018.24 1018.09 1017.97 1017.87 1017.74 1017.57 1017.37 1017.16 1016.96 1016.81 1016.73 1016.73 1016.77 1016.86 1016.95 1017.03 1017.09 1017.13 1017.17 1017.25 1017.36 1017.52 1017.71 1017.90 1018.07 1018.19 1018.24 1018.23
1018.69 1019.21 1019.45 1019.47 1019.34 1019.17 1019.04 1019.03 1019.15 1019.40 1019.73 1020.06 1020.33 1020.49 1020.48 1020.32 1020.04 1019.69 1019.32 1019.00 1018.75 1018.58 1018.47 1018.38 1018.29 1018.16 1017.98 1017.77 1017.56 1017.38 1017.27 1017.24 1017.28 1017.39 1017.53 1017.67 1017.78 1017.86 1017.91 1017.96 1018.03 1018.14 1018.28 1018.44 1018.61 1018.74 1018.82 1018.84 1018.81
1019.06 1019.49 1019.67 1019.65 1019.53 1019.40 1019.33 1019.39 1019.56 1019.85 1020.17 1020.47 1020.68 1020.76 1020.68 1020.46 1020.15 1019.79 1019.46 1019.19 1018.99 1018.88 1018.81 1018.76 1018.68 1018.55 1018.38 1018.17 1017.98 1017.82 1017.74 1017.75 1017.85 1018.01 1018.19 1018.36 1018.50 1018.60 1018.67 1018.73 1018.81 1018.91 1019.04 1019.18 1019.33 1019.43 1019.49 1019.48 1019.42
1019.46 1019.84 1019.99 1019.98 1019.90 1019.83 1019.83 1019.93 1020.13 1020.40 1020.68 1020.90 1021.02 1021.01 1020.85 1020.58 1020.25 1019.90 1019.60 1019.38 1019.24 1019.17 1019.14 1019.11 1019.05 1018.93 1018.76 1018.57 1018.40 1018.27 1018.22 1018.26 1018.39 1018.57 1018.77 1018.97 1019.13 1019.25 1019.34 1019.42 1019.51 1019.62 1019.76 1019.90 1020.03 1020.12 1020.16 1020.13 1020.06
1019.88 1020.22 1020.37 1020.40 1020.38 1020.39 1020.45 1020.59 1020.79 1021.02 1021.23 1021.36 1021.38 1021.28 1021.05 1020.75 1020.41 1020.08 1019.82 1019.64 1019.53 1019.49 1019.48 1019.46 1019.40 1019.29 1019.14 1018.97 1018.82 1018.72 1018.69 1018.75 1018.88 1019.06 1019.26 1019.46 1019.62 1019.76 1019.88 1019.99 1020.10 1020.24 1020.40 1020.55 1020.69 1020.77 1020.80 1020.77 1020.69
1020.26 1020.58 1020.75 1020.84 1020.90 1020.99 1021.11 1021.28 1021.48 1021.66 1021.79 1021.84 1021.77 1021.60 1021.33 1021.01 1020.68 1020.38 1020.14 1019.98 1019.89 1019.85 1019.83 1019.80 1019.73 1019.63 1019.49 1019.35 1019.23 1019.15 1019.14 1019.19 1019.31 1019.47 1019.65 1019.82 1019.98 1020.12 1020.25 1020.40 1020.55 1020.73 1020.92 1021.10 1021.25 1021.35 1021.38 1021.36 1021.29
1020.55 1020.87 1021.08 1021.24 1021.39 1021.56 1021.74 1021.94 1022.12 1022.26 1022.32 1022.29 1022.16 1021.95 1021.67 1021.35 1021.05 1020.77 1020.56 1020.40 1020.29 1020.22 1020.17 1020.11 1020.03 1019.93 1019.82 1019.70 1019.61 1019.56 1019.56 1019.61 1019.70 1019.81 1019.94 1020.07 1020.20 1020.34 1020.48 1020.65 1020.85 1021.07 1021.29 1021.51 1021.68 1021.79 1021.85 1021.84 1021.79
1020.73 1021.05 1021.31 1021.56 1021.81 1022.06 1022.30 1022.51 1022.67 1022.76 1022.76 1022.67 1022.50 1022.27 1022.01 1021.73 1021.46 1021.22 1021.02 1020.85 1020.71 1020.60 1020.49 1020.38 1020.28 1020.18 1020.09 1020.02 1019.97 1019.95 1019.97 1020.00 1020.05 1020.11 1020.18 1020.25 1020.34 1020.45 1020.60 1020.79 1021.01 1021.27 1021.53 1021.76 1021.96 1022.09 1022.16 1022.17 1022.15
1020.77 1021.12 1021.46 1021.81 1022.16 1022.49 1022.77 1022.98 1023.10 1023.12 1023.05 1022.92 1022.73 1022.51 1022.28 1022.06 1021.85 1021.66 1021.47 1021.29 1021.11 1020.93 1020.76 1020.60 1020.47 1020.37 1020.31 1020.29 1020.29 1020.32 1020.35 1020.38 1020.39 1020.40 1020.40 1020.40 1020.44 1020.52 1020.65 1020.84 1021.08 1021.35 1021.63 1021.88 1022.08 1022.23 1022.31 1022.35 1022.37
1020.71 1021.12 1021.57 1022.03 1022.47 1022.86 1023.16 1023.34 1023.40 1023.34 1023.19 1023.00 1022.79 1022.59 1022.42 1022.27 1022.14 1022.00 1021.84 1021.65 1021.43 1021.19 1020.96 1020.75 1020.59 1020.50 1020.48 1020.51 1020.57 1020.65 1020.72 1020.75 1020.73 1020.69 1020.62 1020.57 1020.54 1020.57 1020.68 1020.86 1021.09 1021.36 1021.63 1021.88 1022.08 1022.22 1022.31 1022.37 1022.42
1020.61 1021.12 1021.69 1022.27 1022.81 1023.24 1023.53 1023.64 1023.59 1023.41 1023.16 1022.90 1022.66 1022.48 1022.37 1022.31 1022.27 1022.21 1022.10 1021.92 1021.67 1021.39 1021.10 1020.85 1020.67 1020.59 1020.60 1020.68 1020.81 1020.95 1021.05 1021.09 1021.07 1020.99 1020.87 1020.76 1020.68 1020.67 1020.73 1020.88 1021.09 1021.34 1021.59 1021.81 1021.98 1022.11 1022.19 1022.26 1022.34
1020.55 1021.19 1021.90 1022.60 1023.22 1023.67 1023.90 1023.91 1023.72 1023.39 1023.00 1022.63 1022.35 1022.19 1022.14 1022.17 1022.23 1022.26 1022.22 1022.07 1021.83 1021.53 1021.20 1020.92 1020.72 1020.64 1020.68 1020.82 1021.00 1021.19 1021.34 1021.41 1021.38 1021.28 1021.13 1020.97 1020.85 1020.79 1020.82 1020.93 1021.10 1021.31 1021.52 1021.70 1021.84 1021.93 1022.00 1022.06 1022.16
1020.59 1021.38 1022.24 1023.06 1023.74 1024.17 1024.33 1024.20 1023.83 1023.31 1022.75 1022.26 1021.92 1021.75 1021.75 1021.88 1022.05 1022.19 1022.23 1022.15 1021.93 1021.63 1021.29 1020.98 1020.77 1020.69 1020.75 1020.91 1021.14 1021.38 1021.56 1021.65 1021.64 1021.53 1021.37 1021.18 1021.02 1020.93 1020.92 1020.99 1021.13 1021.29 1021.45 1021.59 1021.68 1021.74 1021.77 1021.82 1021.91
1020.78 1021.73 1022.72 1023.64 1024.35 1024.75 1024.80 1024.50 1023.93 1023.21 1022.47 1021.85 1021.43 1021.25 1021.29 1021.50 1021.78 1022.03 1022.18 1022.17 1022.00 1021.71 1021.37 1021.05 1020.83 1020.74 1020.79 1020.97 1021.22 1021.48 1021.69 1021.80 1021.81 1021.70 1021.53 1021.34 1021.16 1021.05 1021.01 1021.05 1021.15 1021.28 1021.39 1021.49 1021.53 1021.55 1021.55 1021.57 1021.65
1021.11 1022.19 1023.31 1024.30 1025.01 1025.36 1025.28 1024.81 1024.05 1023.13 1022.21 1021.45 1020.95 1020.75 1020.82 1021.10 1021.48 1021.84 1022.09 1022.16 1022.05 1021.79 1021.45 1021.13 1020.88 1020.77 1020.81 1020.98 1021.23 1021.49 1021.71 1021.84 1021.85 1021.76 1021.60 1021.41 1021.23 1021.11 1021.06 1021.08 1021.15 1021.25 1021.33 1021.39 1021.41 1021.39 1021.36 1021.35 1021.39
1021.53 1022.71 1023.91 1024.93 1025.63 1025.89 1025.70 1025.08 1024.14 1023.05 1021.99 1021.12 1020.55 1020.32 1020.42 1020.75 1021.21 1021.65 1021.98 1022.12 1022.07 1021.84 1021.52 1021.19 1020.93 1020.79 1020.80 1020.93 1021.16 1021.40 1021.62 1021.75 1021.77 1021.69 1021.54 1021.36 1021.20 1021.08 1021.03 1021.05 1021.11 1021.19 1021.26 1021.29 1021.29 1021.25 1021.20 1021.16 1021.17
1021.94 1023.19 1024.41 1025.42 1026.08 1026.27 1025.96 1025.22 1024.16 1022.96 1021.80 1020.86 1020.25 1020.01 1020.11 1020.48 1020.98 1021.48 1021.86 1022.06 1022.05 1021.85 1021.54 1021.21 1020.92 1020.75 1020.73 1020.82 1021.01 1021.23 1021.42 1021.54 1021.57 1021.50 1021.37 1021.22 1021.07 1020.97 1020.93 1020.94 1021.01 1021.08 1021.15 1021.19 1021.18 1021.14 1021.08 1021.02 1021.00
1022.27 1023.52 1024.71 1025.67 1026.26 1026.37 1025.99 1025.17 1024.05 1022.80 1021.62 1020.66 1020.03 1019.79 1019.90 1020.27 1020.79 1021.31 1021.71 1021.93 1021.95 1021.77 1021.48 1021.14 1020.85 1020.66 1020.60 1020.66 1020.81 1020.99 1021.16 1021.27 1021.29 1021.24 1021.13 1020.99 1020.87 1020.78 1020.76 1020.79 1020.86 1020.94 1021.02 1021.07 1021.07 1021.04 1020.98 1020.91 1020.87
1022.42 1023.61 1024.72 1025.58 1026.08 1026.12 1025.68 1024.85 1023.74 1022.52 1021.37 1020.45 1019.86 1019.64 1019.75 1020.11 1020.61 1021.11 1021.50 1021.72 1021.74 1021.58 1021.30 1020.99 1020.70 1020.50 1020.43 1020.46 1020.58 1020.73 1020.88 1020.97 1021.00 1020.96 1020.86 1020.75 1020.65 1020.58 1020.57 1020.61 1020.69 1020.79 1020.88 1020.94 1020.96 1020.94 1020.89 1020.83 1020.77
1022.36 1023.43 1024.41 1025.14 1025.52 1025.48 1025.03 1024.22 1023.18 1022.06 1021.02 1020.19 1019.66 1019.47 1019.59 1019.92 1020.38 1020.83 1021.19 1021.38 1021.40 1021.26 1021.01 1020.73 1020.48 1020.30 1020.23 1020.26 1020.37 1020.51 1020.64 1020.73 1020.75 1020.72 1020.64 1020.55 1020.47 1020.42 1020.43 1020.48 1020.56 1020.66 1020.76 1020.83 1020.86 1020.86 1020.82 1020.75 1020.69
Thickness
5782 5781 5777 5763 5738 5714 5708 5716 5723 5724 5726 5731 5733 5730 5723 5718 5714 5711 5731 5740 5741 5742 5743 5743 5744 5744 5745 5746 5746 5747 5748 5749 5749 5750 5751 5752 5753 5755 5756 5757 5758 5759 5759 5759 5760 5760 5760 5760 5760
5782 5779 5768 5747 5719 5698 5705 5718 5720 5725 5730 5733 5732 5729 5723 5721 5727 5728 5734 5739 5740 5740 5741 5741 5742 5742 5743 5743 5744 5744 5745 5745 5746 5747 5748 5749 5751 5752 5753 5754 5755 5755 5756 5756 5757 5757 5757 5757 5757
5781 5775 5752 5731 5712 5702 5709 5720 5723 5730 5734 5732 5727 5726 5723 5721 5728 5730 5735 5738 5738 5738 5739 5739 5740 5740 5740 5740 5741 5741 5742 5742 5743 5744 5745 5746 5747 5749 5750 5751 5751 5752 5752 5753 5753 5754 5754 5754 5754
5775 5760 5743 5721 5711 5715 5720 5724 5728 5728 5731 5731 5726 5720 5724 5730 5731 5733 5737 5737 5736 5736 5736 5737 5737 5737 5738 5738 5738 5738 5739 5739 5740 5741 5741 5742 5743 5745 5746 5747 5748 5748 5749 5749 5750 5750 5750 5750 5751
5767 5746 5724 5710 5713 5721 5727 5730 5731 5726 5725 5726 5724 5716 5718 5729 5734 5735 5735 5735 5733 5734 5734 5734 5734 5734 5734 5735 5735 5735 5735 5736 5737 5738 5738 5739 5740 5741 5742 5743 5744 5744 5745 5745 5746 5746 5746 5747 5747
5749 5735 5710 5703 5712 5722 5728 5732 5730 5725 5724 5725 5722 5715 5717 5729 5731 5732 5733 5732 5732 5731 5731 5731 5731 5731 5731 5731 5732 5732 5733 5733 5734 5734 5735 5736 5737 5738 5739 5739 5740 5741 5741 5741 5741 5742 5742 5743 5743
5742 5725 5711 5710 5710 5717 5727 5733 5727 5723 5721 5723 5724 5714 5717 5725 5729 5731 5731 5730 5730 5729 5729 5728 5728 5728 5728 5728 5729 5729 5730 5730 5730 5731 5732 5733 5734 5735 5735 5736 5736 5737 5737 5738 5737 5738 5738 5738 5738
5747 5727 5713 5710 5711 5716 5729 5732 5731 5726 5723 5730 5727 5715 5714 5724 5729 5729 5728 5727 5727 5727 5726 5725 5725 5725 5725 5725 5725 5726 5727 5727 5727 5728 5728 5729 5730 5731 5732 5732 5733 5733 5734 5734 5734 5734 5733 5734 5734
5751 5720 5708 5713 5714 5720 5730 5728 5730 5733 5727 5726 5726 5724 5725 5729 5728 5725 5722 5721 5722 5723 5723 5723 5723 5722 5722 5722 5722 5723 5723 5724 5724 5724 5725 5726 5727 5727 5728 5729 5729 5730 5730 5730 5730 5730 5729 5729 5729
5740 5715 5719 5728 5728 5727 5730 5728 5727 5724 5720 5719 5721 5724 5727 5726 5723 5719 5717 5716 5716 5718 5720 5720 5720 5720 5719 5719 5719 5720 5720 5720 5721 5721 5722 5722 5723 5724 5724 5725 5725 5726 5726 5726 5726 5725 5725 5725 5724
5739 5725 5731 5734 5736 5734 5730 5728 5729 5720 5714 5718 5718 5720 5722 5721 5719 5717 5716 5715 5715 5716 5717 5718 5717 5717 5717 5716 5716 5717 5717 5717 5717 5718 5718 5719 5720 5720 5720 5721 5721 5722 5722 5722 5721 5721 5720 5720 5720
5738 5736 5737 5737 5739 5735 5730 5728 5724 5721 5722 5728 5727 5725 5722 5719 5717 5716 5715 5715 5715 5715 5715 5716 5715 5715 5715 5714 5714 5714 5714 5714 5714 5715 5715 5716 5716 5716 5716 5717 5717 5718 5718 5718 5717 5716 5715 5715 5715
5736 5735 5739 5740 5738 5735 5731 5726 5724 5723 5728 5730 5727 5723 5720 5718 5717 5717 5717 5716 5714 5713 5713 5714 5714 5713 5712 5712 5712 5711 5711 5711 5711 5712 5712 5713 5713 5712 5713 5713 5713 5714 5714 5714 5712 5711 5711 5710 5710
5738 5737 5736 5737 5735 5734 5727 5724 5723 5723 5728 5725 5722 5719 5719 5718 5717 5716 5715 5714 5713 5712 5712 5712 5712 5711 5711 5710 5709 5708 5708 5708 5708 5709 5709 5709 5710 5709 5709 5709 5709 5709 5710 5709 5708 5707 5707 5706 5705
5740 5731 5728 5731 5731 5730 5726 5715 5718 5726 5726 5721 5720 5718 5718 5718 5717 5716 5715 5714 5713 5712 5712 5711 5711 5710 5709 5708 5707 5706 5706 5706 5706 5706 5706 5706 5706 5706 5706 5705 5705 5705 5705 5704 5703 5703 5702 5701 5701
5732 5718 5709 5723 5729 5728 5719 5704 5722 5727 5723 5718 5717 5716 5716 5717 5717 5717 5717 5715 5714 5713 5711 5710 5711 5709 5707 5706 5705 5704 5704 5703 5703 5703 5703 5703 5703 5703 5703 5702 5701 5701 5701 5700 5699 5698 5697 5696 5695
5713 5702 5704 5715 5727 5725 5716 5708 5722 5726 5722 5717 5716 5715 5714 5715 5717 5718 5718 5716 5715 5713 5711 5709 5708 5707 5706 5704 5703 5702 5701 5701 5700 5700 5700 5700 5700 5700 5700 5699 5698 5698 5697 5697 5696 5693 5692 5691 5690
5703 5703 5705 5709 5722 5719 5711 5710 5721 5723 5721 5718 5716 5714 5713 5714 5717 5719 5718 5717 5715 5713 5711 5708 5707 5705 5704 5702 5701 5700 5698 5698 5698 5697 5697 5698 5698 5697 5697 5696 5695 5695 5694 5692 5691 5690 5689 5687 5687
5714 5709 5705 5713 5725 5717 5710 5711 5718 5721 5719 5717 5715 5714 5713 5715 5719 5719 5718 5716 5714 5711 5709 5707 5705 5703 5702 5700 5698 5696 5694 5694 5695 5695 5695 5695 5695 5694 5694 5692 5692 5691 5690 5689 5688 5687 5685 5683 5683
5715 5708 5706 5714 5724 5717 5708 5710 5719 5720 5720 5720 5719 5716 5716 5715 5716 5716 5716 5714 5712 5710 5707 5705 5704 5702 5701 5699 5697 5696 5694 5692 5692 5692 5692 5692 5692 5691 5691 5689 5688 5688 5686 5685 5684 5683 5681 5680 5679
5714 5709 5709 5710 5716 5715 5709 5705 5712 5721 5723 5723 5722 5720 5719 5717 5715 5714 5713 5712 5710 5708 5707 5706 5703 5701 5700 5698 5696 5694 5692 5690 5689 5689 5689 5689 5689 5688 5688 5687 5686 5685 5684 5682 5681 5680 5679 5676 5675
5708 5721 5718 5714 5703 5694 5702 5683 5704 5712 5715 5719 5720 5718 5718 5719 5717 5714 5713 5711 5709 5708 5707 5705 5702 5700 5698 5697 5695 5692 5688 5686 5686 5686 5686 5686 5686 5686 5685 5685 5684 5682 5681 5680 5679 5678 5677 5675 5672
5718 5723 5717 5711 5702 5692 5693 5684 5693 5707 5708 5715 5718 5719 5720 5719 5718 5716 5714 5712 5710 5708 5705 5703 5701 5699 5697 5695 5693 5690 5688 5686 5685 5684 5684 5684 5684 5683 5683 5682 5681 5680 5679 5677 5677 5676 5675 5673 5671
5724 5715 5706 5695 5688 5678 5688 5682 5685 5698 5708 5716 5721 5720 5720 5719 5718 5716 5714 5711 5708 5706 5703 5701 5698 5696 5694 5693 5691 5689 5687 5685 5683 5682 5681 5681 5681 5681 5681 5680 5679 5678 5676 5675 5674 5673 5672 5671 5669
5714 5695 5675 5672 5665 5670 5687 5683 5688 5711 5717 5718 5719 5720 5720 5718 5715 5712 5710 5708 5705 5703 5700 5698 5695 5693 5692 5690 5689 5687 5686 5684 5682 5681 5679 5678 5678 5678 5678 5678 5676 5675 5674 5673 5672 5670 5669 5668 5667
5706 5696 5673 5663 5659 5667 5682 5679 5698 5717 5721 5722 5722 5721 5719 5716 5714 5711 5709 5707 5704 5702 5699 5696 5693 5691 5689 5688 5687 5685 5684 5683 5681 5680 5678 5677 5676 5676 5676 5675 5674 5673 5672 5671 5669 5668 5666 5665 5664
5701 5692 5692 5673 5670 5663 5671 5684 5702 5717 5718 5719 5718 5716 5714 5713 5712 5710 5708 5705 5703 5700 5698 5695 5692 5690 5688 5686 5685 5683 5682 5681 5680 5678 5677 5676 5675 5675 5674 5672 5671 5670 5668 5667 5666 5664 5663 5661 5660
5709 5695 5678 5670 5660 5655 5667 5675 5683 5702 5707 5710 5711 5711 5711 5711 5710 5708 5706 5704 5701 5699 5696 5693 5691 5689 5687 5685 5683 5682 5680 5679 5678 5676 5675 5674 5673 5673 5671 5669 5668 5666 5665 5663 5662 5660 5659 5657 5656
5697 5691 5680 5667 5664 5654 5653 5670 5700 5703 5707 5706 5707 5709 5708 5708 5707 5705 5704 5702 5699 5697 5694 5691 5689 5686 5685 5683 5682 5680 5678 5676 5675 5674 5673 5672 5671 5670 5668 5666 5665 5663 5661 5660 5658 5656 5655 5653 5652
5703 5695 5681 5670 5665 5657 5653 5669 5707 5705 5706 5706 5705 5706 5706 5706 5705 5703 5701 5698 5695 5693 5691 5689 5686 5684 5683 5681 5679 5677 5675 5673 5672 5671 5670 5669 5668 5666 5665 5663 5661 5660 5658 5657 5655 5653 5651 5649 5648